Wind_Speed
5 4 4 4 4 5 5 4 4 4 5 5 5 5 5 4 3 2 3 3 1 1 1 1 1 1 1 2 1 1 3 2 2 2 2 3 3 4 4 4 3 3 3
5 4 4 4 4 5 5 4 4 5 5 5 5 5 4 4 3 3 3 2 1 1 1 1 1 0 1 1 2 2 3 3 3 3 3 3 3 4 4 4 4 5 4
5 5 5 4 4 4 5 5 5 5 5 5 4 4 3 2 2 3 2 1 1 1 0 1 0 1 1 2 2 2 2 3 3 3 3 3 3 3 4 4 5 5 5
5 5 5 5 5 4 4 5 5 5 4 4 4 4 2 2 2 2 2 1 1 1 1 1 2 2 2 2 2 2 3 3 3 3 3 3 4 4 4 5 5 5 5
5 5 5 4 5 5 5 5 4 4 4 4 4 4 3 1 1 2 2 2 2 2 2 2 2 2 2 2 3 3 3 4 4 4 4 4 4 4 4 5 5 5 5
6 6 5 4 4 4 5 5 4 4 4 4 4 3 2 1 1 1 2 2 3 3 3 2 2 2 3 3 3 4 4 4 4 5 5 5 4 4 4 5 5 5 5
6 6 5 4 4 4 4 4 4 4 3 3 3 2 1 1 1 1 2 2 3 3 3 3 2 3 4 4 3 4 5 5 5 5 5 5 5 5 5 5 5 5 5
6 5 5 4 4 4 4 4 3 3 3 3 2 1 1 1 1 1 2 2 2 3 4 4 4 4 4 4 4 4 6 6 6 6 6 5 5 5 6 6 6 5 5
6 5 4 4 4 4 4 4 4 3 2 2 1 1 1 1 1 1 1 1 2 3 4 4 5 5 5 5 5 5 6 6 6 7 6 6 6 6 6 6 6 7 7
6 6 4 4 4 4 3 3 3 2 2 2 1 1 1 1 1 2 2 2 3 4 4 5 5 5 5 6 6 6 7 7 8 8 8 8 7 7 7 7 7 8 7
6 6 5 4 4 4 3 3 3 2 2 1 1 1 1 1 1 1 2 3 3 3 4 5 5 5 6 6 6 6 7 7 8 9 10 9 9 8 7 8 9 9 9
6 6 5 4 4 4 3 3 3 2 2 1 1 1 1 1 1 1 1 2 3 4 5 5 5 6 6 6 5 5 6 7 7 8 9 9 9 9 8 8 9 9 9
7 7 6 5 4 3 2 2 2 2 2 1 1 1 1 1 1 1 2 3 3 4 5 6 6 6 6 6 6 7 7 8 8 8 9 9 9 10 10 9 9 9 10
7 7 6 6 5 4 3 2 2 2 2 1 1 1 1 2 2 2 3 4 4 5 5 6 6 6 6 6 7 8 9 8 8 8 9 10 10 10 11 11 10 10 10
8 7 7 6 5 4 3 2 2 2 2 1 1 2 2 3 3 3 4 4 5 5 6 6 6 7 7 7 7 7 8 8 8 8 9 9 10 10 10 11 11 12 12
7 7 7 6 5 5 4 2 1 1 2 2 2 2 2 3 3 4 4 5 5 6 6 6 6 7 8 8 8 8 8 8 9 9 9 9 9 10 11 11 12 13 13
7 7 6 6 5 5 4 3 2 2 2 2 3 3 3 3 3 4 5 5 5 6 6 7 7 7 8 8 8 8 8 8 8 9 10 10 11 10 10 11 11 11 12
7 7 7 6 5 5 5 4 4 3 3 3 3 3 4 4 4 5 5 5 6 6 7 6 6 7 8 8 8 8 8 8 9 9 9 10 11 11 11 11 11 10 11
7 7 6 6 6 5 5 5 5 4 4 4 4 4 5 5 5 5 6 6 6 6 6 6 7 7 8 8 8 8 9 8 8 9 9 10 10 10 10 10 10 11 11
6 6 6 6 7 7 7 5 5 5 4 4 4 5 6 6 7 6 6 7 7 6 7 7 7 7 8 8 8 8 8 9 9 9 9 10 10 10 10 11 11 11 12
6 6 6 6 6 7 8 7 5 5 5 5 5 6 6 7 7 7 7 7 7 7 7 7 8 8 8 8 8 8 8 9 9 9 10 10 10 10 10 10 11 11 11
7 7 7 7 6 7 7 7 6 6 6 6 7 7 7 7 8 8 7 7 7 7 7 8 8 8 8 8 9 9 9 9 10 10 10 11 11 11 11 11 11 11 11
8 8 8 7 7 7 8 8 7 7 7 7 8 8 8 8 8 8 8 7 8 8 8 9 9 9 9 10 11 11 11 11 11 11 11 11 11 12 12 12 12 12 12
8 8 9 9 9 9 9 9 8 8 8 8 8 9 9 9 9 9 9 9 9 9 10 10 11 11 11 11 12 12 12 12 12 12 12 12 13 13 14 14 13 13 13
8 8 10 10 9 9 10 10 10 9 9 9 10 10 10 10 10 10 9 9 10 10 10 11 12 12 13 13 12 12 12 13 13 13 14 15 15 15 15 15 15 14 13
9 9 10 11 11 10 11 10 10 11 10 11 11 11 11 11 11 10 10 10 11 12 12 12 12 13 13 13 12 12 13 14 14 15 15 16 16 16 16 16 16 16 15
Wind_Direction
60 62 65 71 78 88 97 103 111 96 90 98 107 116 123 124 130 145 166 154 123 72 58 79 191 217 240 253 252 256 245 241 227 207 211 224 233 231 242 259 254 247 254
62 64 67 80 86 92 94 90 89 91 92 95 106 113 120 122 130 141 153 148 131 97 55 36 39 301 264 259 260 242 243 250 238 234 236 237 236 237 247 258 248 248 255
64 69 77 85 87 88 95 93 94 93 92 93 104 112 113 121 131 148 157 154 161 184 282 342 343 310 256 253 261 254 232 234 234 240 239 242 242 248 258 265 258 252 253
69 69 75 80 90 92 97 99 96 94 93 94 98 105 114 140 155 169 170 186 190 193 239 296 271 271 259 244 252 257 247 234 231 234 236 246 257 265 265 264 260 259 258
64 63 65 74 89 92 98 104 105 100 100 99 106 109 113 130 160 160 174 208 226 228 248 258 264 254 248 246 254 255 255 242 236 238 238 243 256 260 258 256 260 263 263
63 61 63 69 82 91 94 101 111 104 96 95 101 114 126 120 131 179 203 227 242 246 252 258 268 255 245 243 249 249 254 243 237 241 244 249 254 256 257 253 262 265 261
64 62 67 72 80 84 91 103 102 97 95 98 105 112 127 133 145 219 241 256 249 247 250 254 257 253 256 255 255 245 247 244 241 246 250 251 253 253 256 255 255 256 256
61 60 68 77 84 85 86 91 108 104 101 99 102 121 142 148 203 242 263 280 264 255 259 260 261 258 253 254 255 245 247 244 245 245 247 250 249 246 250 252 248 256 259
61 60 65 81 91 95 93 96 107 108 95 91 95 115 147 170 230 235 273 300 283 264 259 262 262 262 256 252 254 253 249 244 246 245 247 252 257 255 253 251 250 253 255
57 57 64 81 90 100 104 112 116 96 81 74 63 120 139 165 202 226 244 265 279 275 269 266 270 266 258 256 256 257 252 250 249 250 250 254 258 262 260 263 251 248 250
50 53 62 76 96 105 107 109 101 88 78 72 55 130 146 154 167 241 252 256 267 271 272 271 273 272 263 260 263 266 257 247 245 249 249 252 256 260 260 261 257 255 253
48 59 68 78 89 101 101 95 89 74 71 84 100 109 144 184 230 297 298 265 266 270 273 273 270 271 268 263 265 266 264 257 253 251 249 250 253 255 257 257 258 262 263
49 54 61 68 70 83 88 80 83 72 66 76 112 132 260 275 265 276 294 288 279 273 273 272 271 271 263 263 268 267 268 262 255 254 253 254 254 254 254 255 258 265 267
41 43 47 51 57 62 62 61 58 55 52 62 70 338 301 293 283 283 287 284 286 282 277 271 268 265 257 262 270 269 264 263 258 255 257 257 255 256 258 258 258 262 264
36 39 41 43 48 53 55 52 35 25 30 17 349 327 313 296 287 289 284 286 289 291 288 280 275 269 267 269 272 276 271 263 260 261 265 266 263 264 264 263 261 262 264
41 39 42 42 43 46 44 39 8 355 359 341 328 333 318 301 289 291 288 290 292 293 292 283 276 274 274 275 278 277 272 268 262 260 261 263 267 267 266 267 266 263 262
38 38 40 40 38 32 19 6 330 313 317 316 315 317 315 313 307 293 298 296 294 298 298 290 279 274 276 276 277 275 273 270 266 264 262 262 265 267 269 270 277 268 263
32 33 34 33 25 15 1 345 331 325 315 304 307 311 316 314 309 304 303 298 295 299 298 289 284 279 278 276 275 274 273 270 265 264 264 265 265 267 269 271 276 275 272
24 23 23 18 9 360 350 338 332 330 318 307 307 311 309 306 300 297 297 294 294 297 292 286 286 289 283 280 274 272 270 270 266 264 264 265 265 268 269 270 275 276 275
11 11 7 7 2 1 359 345 335 333 324 316 315 312 306 306 304 297 295 287 285 288 288 282 284 289 286 279 274 271 273 272 270 266 267 270 270 269 268 269 273 276 274
356 353 350 352 351 354 356 353 345 334 320 313 310 308 305 304 304 302 298 288 282 283 282 282 281 284 285 282 278 276 280 278 275 270 269 270 272 272 269 270 273 274 274
343 343 341 341 338 343 346 343 332 327 319 308 308 308 302 297 297 298 298 290 286 287 286 284 285 284 285 284 282 282 282 279 280 276 271 270 270 271 271 272 273 274 273
327 326 327 329 329 330 333 333 323 313 313 311 309 308 302 297 296 290 286 286 289 289 292 293 291 289 286 284 283 279 275 274 276 276 273 268 266 265 268 270 269 268 271
319 318 314 315 316 316 317 321 318 307 304 304 302 302 298 293 293 288 282 281 283 286 290 296 296 289 282 279 280 277 275 276 273 274 272 269 266 264 265 266 266 266 270
320 318 312 313 309 307 306 306 309 307 300 297 296 293 290 290 289 285 287 287 288 288 287 291 295 292 287 280 279 277 274 273 274 276 274 270 267 265 264 265 264 265 266
317 314 306 307 308 306 303 299 300 303 302 300 295 288 285 284 281 279 284 289 290 290 288 288 290 292 291 286 282 281 279 277 278 276 275 273 269 267 265 264 265 264 264
Height
5874 5874 5874 5874 5874 5874 5875 5875 5876 5876 5877 5877 5878 5878 5879 5880 5881 5882 5882 5883 5884 5884 5884 5885 5885 5885 5886 5887 5887 5887 5887 5888 5889 5889 5890 5891 5891 5892 5892 5893 5893 5893 5894
5875 5874 5874 5874 5875 5875 5875 5876 5876 5877 5877 5878 5878 5879 5880 5880 5881 5882 5883 5883 5884 5884 5884 5885 5885 5886 5886 5886 5886 5886 5887 5888 5888 5889 5890 5890 5891 5891 5892 5892 5893 5893 5893
5875 5875 5875 5875 5875 5875 5875 5876 5876 5877 5878 5878 5879 5879 5880 5881 5882 5882 5883 5883 5884 5884 5884 5885 5885 5885 5886 5886 5886 5886 5887 5887 5888 5889 5889 5890 5890 5891 5892 5892 5892 5892 5892
5876 5876 5876 5875 5875 5876 5876 5877 5877 5878 5878 5879 5879 5880 5880 5881 5882 5882 5883 5883 5883 5884 5884 5885 5885 5885 5885 5886 5886 5886 5886 5887 5887 5888 5889 5889 5890 5890 5891 5891 5891 5891 5892
5877 5877 5876 5876 5876 5877 5877 5877 5878 5878 5879 5879 5880 5880 5881 5881 5881 5882 5882 5883 5883 5884 5884 5884 5884 5885 5885 5885 5885 5885 5886 5886 5887 5887 5888 5888 5889 5890 5890 5890 5890 5891 5891
5878 5877 5877 5877 5877 5877 5877 5877 5878 5879 5879 5879 5880 5880 5881 5881 5881 5881 5882 5882 5883 5883 5883 5884 5884 5884 5884 5884 5884 5885 5885 5886 5886 5887 5887 5888 5888 5889 5889 5889 5890 5890 5890
5878 5878 5878 5877 5877 5877 5877 5878 5878 5879 5879 5879 5880 5880 5881 5881 5881 5881 5882 5882 5882 5882 5883 5883 5883 5883 5883 5884 5884 5884 5884 5885 5885 5886 5886 5887 5887 5887 5888 5888 5888 5888 5889
5878 5878 5878 5878 5878 5878 5878 5878 5878 5879 5879 5879 5880 5880 5881 5881 5881 5881 5881 5881 5881 5881 5882 5882 5882 5882 5882 5883 5883 5883 5883 5884 5884 5885 5885 5885 5886 5886 5886 5887 5887 5887 5887
5879 5878 5878 5878 5878 5878 5878 5878 5878 5879 5879 5879 5879 5880 5880 5880 5881 5881 5881 5881 5881 5881 5881 5881 5881 5881 5881 5881 5881 5882 5882 5882 5883 5883 5884 5884 5885 5885 5885 5885 5885 5886 5886
5879 5878 5878 5878 5878 5878 5878 5878 5878 5879 5879 5879 5879 5879 5879 5880 5880 5880 5880 5880 5880 5880 5880 5880 5880 5880 5880 5880 5880 5880 5880 5881 5881 5882 5882 5882 5883 5883 5883 5883 5884 5884 5884
5880 5879 5878 5878 5878 5878 5878 5878 5879 5879 5879 5879 5878 5878 5879 5879 5879 5879 5879 5879 5879 5879 5879 5879 5879 5879 5879 5879 5879 5879 5879 5879 5880 5880 5880 5881 5881 5882 5882 5882 5882 5882 5882
5880 5879 5878 5878 5878 5878 5878 5879 5879 5879 5879 5879 5878 5878 5878 5879 5879 5879 5878 5878 5878 5878 5878 5878 5878 5878 5878 5878 5878 5878 5878 5878 5878 5878 5878 5879 5879 5880 5880 5881 5881 5881 5881
5881 5880 5879 5879 5879 5879 5879 5879 5879 5879 5879 5879 5878 5878 5878 5878 5878 5878 5878 5877 5877 5877 5877 5877 5876 5876 5877 5877 5877 5877 5877 5876 5876 5876 5876 5877 5877 5878 5878 5879 5879 5879 5878
5882 5881 5880 5879 5879 5879 5879 5879 5879 5879 5879 5878 5878 5878 5878 5877 5877 5877 5877 5876 5876 5876 5876 5875 5875 5875 5875 5875 5875 5875 5875 5875 5875 5874 5874 5875 5875 5875 5876 5876 5876 5876 5876
5882 5882 5881 5880 5880 5880 5879 5879 5879 5879 5878 5878 5878 5877 5877 5877 5876 5876 5875 5875 5875 5874 5874 5874 5873 5873 5873 5873 5873 5873 5873 5873 5873 5873 5872 5872 5873 5873 5873 5873 5874 5874 5874
5883 5882 5881 5881 5880 5880 5879 5879 5878 5878 5878 5877 5877 5876 5876 5875 5875 5874 5874 5874 5873 5873 5872 5872 5872 5872 5872 5871 5871 5871 5871 5871 5871 5871 5871 5871 5871 5871 5871 5871 5871 5871 5871
5884 5883 5882 5881 5881 5880 5879 5879 5878 5877 5877 5877 5876 5875 5875 5874 5873 5873 5873 5872 5872 5871 5871 5870 5870 5870 5869 5869 5869 5869 5869 5869 5869 5869 5869 5869 5869 5869 5869 5868 5868 5868 5868
5884 5883 5883 5882 5881 5880 5879 5878 5877 5877 5876 5876 5875 5874 5874 5873 5872 5872 5871 5871 5870 5870 5869 5868 5868 5868 5867 5867 5867 5867 5867 5867 5867 5867 5867 5867 5867 5867 5866 5866 5866 5865 5865
5884 5883 5882 5881 5880 5879 5878 5877 5877 5876 5875 5874 5874 5873 5872 5872 5871 5870 5870 5869 5869 5868 5867 5867 5866 5866 5865 5865 5865 5865 5865 5865 5865 5865 5865 5865 5864 5864 5864 5863 5863 5863 5863
5884 5883 5882 5881 5880 5879 5877 5876 5875 5875 5874 5873 5872 5872 5871 5870 5869 5868 5868 5867 5867 5866 5866 5865 5864 5864 5863 5863 5863 5863 5863 5862 5862 5862 5862 5862 5862 5861 5861 5861 5861 5861 5860
5883 5882 5881 5880 5879 5878 5877 5875 5874 5873 5873 5872 5871 5870 5869 5868 5868 5867 5866 5865 5865 5865 5864 5863 5863 5862 5861 5861 5861 5861 5860 5860 5860 5860 5860 5860 5859 5859 5859 5859 5858 5858 5858
5883 5882 5881 5880 5879 5877 5876 5875 5873 5873 5872 5871 5870 5868 5867 5867 5866 5865 5864 5863 5863 5862 5862 5861 5860 5860 5859 5859 5859 5858 5858 5858 5857 5857 5857 5857 5857 5856 5856 5856 5856 5855 5855
5881 5880 5879 5879 5878 5877 5875 5874 5872 5871 5870 5869 5868 5867 5866 5865 5864 5863 5862 5861 5861 5860 5860 5859 5858 5858 5857 5857 5856 5856 5855 5855 5855 5855 5854 5854 5853 5853 5853 5853 5853 5852 5852
5880 5879 5878 5877 5876 5874 5874 5872 5870 5869 5869 5868 5866 5865 5864 5863 5862 5860 5860 5859 5859 5858 5858 5857 5856 5855 5854 5854 5853 5853 5853 5852 5852 5852 5851 5850 5850 5850 5850 5850 5850 5849 5849
5878 5876 5875 5874 5873 5872 5871 5870 5868 5867 5866 5865 5864 5863 5862 5860 5859 5858 5857 5857 5857 5856 5855 5854 5853 5852 5851 5850 5850 5849 5849 5848 5848 5848 5847 5847 5846 5846 5846 5846 5846 5846 5847
5876 5874 5873 5872 5870 5869 5868 5867 5866 5865 5863 5862 5861 5860 5859 5858 5857 5856 5856 5855 5854 5854 5853 5852 5851 5849 5848 5847 5847 5846 5846 5845 5844 5844 5843 5843 5842 5842 5842 5842 5842 5843 5843